Regional Weather Roundup
Issued by NWS

Home | Current Version | Previous Version | Graphics & Text | Print | Product List | Glossary On
Versions: 1 2 3 4 5 6 7 8 9 10 11 12 13 14 15 16 17 18 19 20 21 22 23 24 25 26 27 28 29 30 31 32 33 34 35 36 37 38 39 40 41 42 43 44 45 46 47 48 49 50
000
ASUS43 KLMK 290602
RWRKY
KENTUCKY REGIONAL WEATHER ROUNDUP
NATIONAL WEATHER SERVICE LOUISVILLE KY
200 AM EDT SUN MAR 29 2015

NOTE "FAIR" INDICATES FEW OR NO CLOUDS BELOW 12,000 FEET
WITH NO SIGNIFICANT WEATHER AND/OR OBSTRUCTIONS TO VISIBILITY.

KYZ001>023-026-027-061>063-070>075-290700-
WESTERN AND SOUTH CENTRAL KENTUCKY

CITY           SKY/WX    TMP DP  RH WIND       PRES   REMARKS
PADUCAH        CLEAR     31  20  63 E5        30.32F WCI  26
HENDERSON      CLEAR     21  19  93 CALM      30.35S
OWENSBORO      CLEAR     29  23  78 CALM      30.36S
HOPKINSVILLE   CLEAR     31  16  52 E2        30.34S
BOWLING GREEN  CLEAR     28  17  63 CALM      30.35S
GLASGOW        NOT AVBL
$$

KYZ024-025-028>034-038-045-046-053-290700-
NORTH CENTRAL KENTUCKY

CITY           SKY/WX    TMP DP  RH WIND       PRES   REMARKS
LOUISVILLE/SDF FAIR      32  15  49 SE3       30.36R
LOUISVILLE/LOU CLEAR     32  13  45 E3        30.36S
FORT KNOX      CLEAR     27  15  61 CALM      30.33S
$$

KYZ035>037-039>044-047>052-055>060-089>105-290700-
NORTHEAST KENTUCKY

CITY           SKY/WX    TMP DP  RH WIND       PRES   REMARKS
LEXINGTON      CLEAR     28  13  53 E5        30.35S WCI  23
COVINGTON      CLEAR     27  13  55 SE3       30.35S
FRANKFORT      CLEAR     22  15  75 CALM      30.35S
$$

KYZ054-064>069-076>088-106>120-290700-
SOUTHEAST KENTUCKY

CITY           SKY/WX    TMP DP  RH WIND       PRES   REMARKS
JACKSON        CLEAR     27  10  49 NE3       30.33S
LONDON         CLEAR     29  13  51 CALM      30.34R
SOMERSET       NOT AVBL
MIDDLESBORO    CLEAR     27  19  73 CALM      30.35R
MONTICELLO     CLEAR     20  17  88 CALM      30.37S
$$



USA.gov is the U.S. government's official web portal to all federal, state and local government web resources and services.